Location: Launay
(47.2429°N, 1.5727°E)
Time: 08:34:46
(UTC+00:00)

Cosmos 864 Rocket - Visible Passes

Search period start: 09 June 2026 00:00
Search period end: 19 June 2026 00:00
Orbit: 952 x 991 km, 82.9° (Epoch: 8 June)

Date Brightness Start Highest point End Pass type
(mag) Time Alt. Az. Time Alt. Az. Time Alt. Az.
9 Jun 4.5 01:14:13 10° NNW 01:20:29 74° W 01:24:25 24° S visible
9 Jun 6.4 03:02:15 10° NW 03:04:38 12° WNW 03:07:00 10° W visible
9 Jun 5.7 23:53:23 10° N 23:59:04 34° ENE 00:03:38 15° SE visible
10 Jun 5.0 01:38:35 10° NNW 01:44:29 44° W 01:48:11 22° SSW visible
10 Jun 6.9 22:35:27 10° NE 22:36:39 10° NE 22:37:49 10° ENE visible
11 Jun 5.0 00:17:15 10° N 00:23:28 56° ENE 00:27:26 23° SSE visible
11 Jun 5.7 02:03:15 10° NNW 02:08:21 26° W 02:12:00 16° SW visible
11 Jun 6.5 22:57:21 10° NNE 23:01:29 18° ENE 23:05:36 10° ESE visible
12 Jun 4.5 00:41:21 10° N 00:47:40 88° W 00:51:16 28° S visible
12 Jun 6.3 02:28:32 10° NW 02:32:02 16° WNW 02:35:31 10° WSW visible
12 Jun 5.9 23:20:43 10° N 23:26:07 29° ENE 23:30:31 14° ESE visible
13 Jun 4.8 01:05:38 10° NNW 01:11:44 54° W 01:15:06 27° SSW visible
13 Jun 5.2 23:44:30 10° N 23:50:34 46° ENE 23:54:22 22° SE visible
14 Jun 5.5 01:30:10 10° NNW 01:35:38 32° W 01:38:56 20° SW visible
14 Jun 6.6 22:25:01 10° NNE 22:28:24 15° ENE 22:31:47 10° E visible
15 Jun 4.6 00:08:30 10° N 00:14:50 77° E 00:18:14 29° SSE visible
15 Jun 6.1 01:55:08 10° NW 01:59:24 19° W 02:02:48 13° WSW visible
15 Jun 6.1 22:48:07 10° NNE 22:53:07 24° ENE 22:57:33 12° ESE visible
16 Jun 4.6 00:32:42 10° NNW 00:38:58 66° W 00:42:07 31° SSW visible
16 Jun 6.6 02:21:35 10° WNW 02:23:00 11° WNW 02:24:23 10° W visible
16 Jun 5.5 23:11:47 10° N 23:17:38 38° ENE 23:21:26 20° SE visible
17 Jun 5.2 00:57:09 10° NNW 01:02:56 39° W 01:06:00 24° SW visible
17 Jun 6.7 21:53:00 10° NE 21:55:18 12° ENE 21:57:36 10° ENE visible
17 Jun 4.8 23:35:42 10° N 23:41:59 63° ENE 23:45:21 29° SSE visible
18 Jun 5.9 01:21:54 10° NNW 01:26:45 24° W 01:29:54 16° WSW visible
18 Jun 6.3 22:15:36 10° NNE 22:20:06 20° ENE 22:24:35 10° ESE visible
